Puerto Banus, Marbella

>

This is an optional block (switch it off / on) in the settings - file ($SITE['banners'] = false;)

You can display ads, any other important text or photo’s using text / html or PHP code.

You can place one or more at the top and or bottom and it can all be different for content / size .



Meteosat more information blitzortung!


Radar lluvias  rain snow radar


Visita nuestra red de sitios de meteo:

Documentation for the template used

MeteoibericaRed estaciones Meteorologicas

MeteoclimaticRed estaciones Meteorologicas



Sin Advertencias climatologicas .En este momento tenemos Nivel Verde.    No hay Alarmas

Pagina Historial Weather Underground texto

Diario Resumen Diciembre 4, 2017 Unidades:  Métrico    impérial   Tanto
« Anterior Dia
Siguiente Dia »
Diario Semana Mensual Anual Personalizada
  Maxima: Minima: Media:
Temperatura: -17.8 °C -13.4 °C -11.3 °C
Punto de rocío: -17.8 °C -17.2 °C -14.4 °C
Humedad: Humidity % 60 % 68 %
Velocidad del Viento: 0 km/h 9 km/h 32.5 km/h
Ráfagas de viento: 0 km/h - -
Viento:- - East
Pression baro: 0 hPa 34841.9 hPa -
Précipitaciones: 0 mm    
Historical Graphs
 
 
Datos de tabla para Diciembre 4, 2017
Tiempo Temperatura Punto de rocío Pression baro Viento Velocidad del Viento Ráfagas de viento Humedad Las precipitaciones Rate ( Hora )
-17.8 °C -17.8 °C 0 hPa Calm     Humidity % 0 mm
00:02 -12.5 °C -15.1 °C 34841.9 hPa NNW 29.8 km/h 29.8 km/h 73 % 0 mm
00:07 -12.5 °C -15.1 °C 34852.1 hPa North 29.8 km/h 29.8 km/h 73 % 0 mm
00:12 -12.5 °C -15.1 °C 34852.1 hPa NNE 29.8 km/h 29.8 km/h 73 % 0 mm
00:17 -12.5 °C -15.1 °C 34852.1 hPa North 32.8 km/h 32.8 km/h 73 % 0 mm
00:22 -12.4 °C -15.1 °C 34852.1 hPa North 29.8 km/h 29.8 km/h 73 % 0 mm
00:27 -12.4 °C -15.1 °C 34852.1 hPa NNW 29.8 km/h 29.8 km/h 73 % 0 mm
00:32 -12.4 °C -15.1 °C 34852.1 hPa NNE 29.8 km/h 29.8 km/h 73 % 0 mm
00:37 -12.4 °C -15.1 °C 34852.1 hPa NNE 32.8 km/h 32.8 km/h 73 % 0 mm
00:42 -12.4 °C -15.1 °C 34852.1 hPa NNE 32.8 km/h 32.8 km/h 73 % 0 mm
00:47 -12.5 °C -15.1 °C 34852.1 hPa North 29.8 km/h 29.8 km/h 73 % 0 mm
00:48 -12.5 °C -15.1 °C 34852.1 hPa North 29.8 km/h 29.8 km/h 73 % 0 mm
00:53 -12.5 °C -15.1 °C 34852.1 hPa North 23.8 km/h 23.8 km/h 73 % 0 mm
00:58 -12.5 °C -15.1 °C 34852.1 hPa NNE 26.9 km/h 26.9 km/h 73 % 0 mm
01:03 -12.4 °C -15.1 °C 34852.1 hPa North 26.9 km/h 26.9 km/h 73 % 0 mm
01:08 -12.4 °C -15.1 °C 34852.1 hPa NNE 23.8 km/h 23.8 km/h 73 % 0 mm
01:13 -12.4 °C -15.1 °C 34852.1 hPa North 26.9 km/h 26.9 km/h 73 % 0 mm
01:14 -12.4 °C -15.1 °C 34852.1 hPa North 23.8 km/h 23.8 km/h 73 % 0 mm
01:24 -12.5 °C -15.1 °C 34852.1 hPa North 26.9 km/h 26.9 km/h 73 % 0 mm
01:29 -12.6 °C -15.1 °C 34852.1 hPa North 26.9 km/h 26.9 km/h 73 % 0 mm
01:34 -12.6 °C -15.1 °C 34852.1 hPa North 25.9 km/h 25.9 km/h 73 % 0 mm
01:39 -12.5 °C -15.1 °C 34852.1 hPa North 26.9 km/h 26.9 km/h 73 % 0 mm
01:44 -12.5 °C -15.1 °C 34841.9 hPa North 29.8 km/h 29.8 km/h 73 % 0 mm
01:49 -12.5 °C -15.1 °C 34841.9 hPa NNE 23.8 km/h 23.8 km/h 73 % 0 mm
01:54 -12.5 °C -15.2 °C 34841.9 hPa NNE 23.8 km/h 23.8 km/h 72 % 0 mm
01:59 -12.4 °C -15.1 °C 34841.9 hPa NNE 29.8 km/h 29.8 km/h 72 % 0 mm
02:04 -12.5 °C -15.2 °C 34841.9 hPa North 23.8 km/h 23.8 km/h 72 % 0 mm
02:09 -12.5 °C -15.2 °C 34852.1 hPa North 23.8 km/h 23.8 km/h 72 % 0 mm
02:14 -12.5 °C -15.2 °C 34841.9 hPa North 20.9 km/h 20.9 km/h 72 % 0 mm
02:19 -12.6 °C -15.2 °C 34852.1 hPa North 29.8 km/h 29.8 km/h 72 % 0 mm
02:24 -12.6 °C -15.2 °C 34841.9 hPa North 28.5 km/h 28.5 km/h 72 % 0 mm
02:29 -12.6 °C -15.2 °C 34841.9 hPa North 23.8 km/h 23.8 km/h 72 % 0 mm
02:35 -12.6 °C -15.2 °C 34841.9 hPa NNE 25.9 km/h 25.9 km/h 72 % 0 mm
02:40 -12.6 °C -15.2 °C 34841.9 hPa North 23.8 km/h 23.8 km/h 72 % 0 mm
02:45 -12.6 °C -15.2 °C 34841.9 hPa North 20.9 km/h 20.9 km/h 73 % 0 mm
02:50 -12.6 °C -15.2 °C 34841.9 hPa NNE 20.9 km/h 20.9 km/h 73 % 0 mm
02:55 -12.6 °C -15.3 °C 34841.9 hPa North 25.9 km/h 25.9 km/h 72 % 0 mm
03:00 -12.6 °C -15.3 °C 34841.9 hPa North 17.9 km/h 17.9 km/h 72 % 0 mm
03:05 -12.6 °C -15.3 °C 34852.1 hPa North 23.8 km/h 23.8 km/h 72 % 0 mm
03:10 -12.6 °C -15.2 °C 34852.1 hPa North 17.9 km/h 17.9 km/h 72 % 0 mm
03:15 -12.6 °C -15.2 °C 34841.9 hPa North 23.8 km/h 23.8 km/h 72 % 0 mm
03:20 -12.6 °C -15.2 °C 34852.1 hPa North 23.8 km/h 23.8 km/h 72 % 0 mm
03:25 -12.6 °C -15.2 °C 34852.1 hPa North 26.9 km/h 26.9 km/h 72 % 0 mm
03:27 -12.6 °C -15.3 °C 34852.1 hPa North 26.9 km/h 26.9 km/h 71 % 0 mm
03:32 -12.6 °C -15.4 °C 34852.1 hPa North 23.8 km/h 23.8 km/h 71 % 0 mm
03:37 -12.7 °C -15.3 °C 34852.1 hPa North 23.8 km/h 23.8 km/h 72 % 0 mm
03:42 -12.7 °C -15.4 °C 34852.1 hPa North 20.9 km/h 20.9 km/h 72 % 0 mm
03:47 -12.7 °C -15.4 °C 34852.1 hPa North 23.8 km/h 23.8 km/h 72 % 0 mm
03:52 -12.7 °C -15.5 °C 34852.1 hPa NNW 17.9 km/h 17.9 km/h 71 % 0 mm
04:02 -12.8 °C -15.5 °C 34852.1 hPa North 23.8 km/h 23.8 km/h 72 % 0 mm
04:07 -12.9 °C -15.5 °C 34852.1 hPa NNW 26.9 km/h 26.9 km/h 72 % 0 mm
04:12 -12.9 °C -15.5 °C 34852.1 hPa North 20.9 km/h 20.9 km/h 72 % 0 mm
04:18 -12.9 °C -15.6 °C 34852.1 hPa North 26.9 km/h 26.9 km/h 72 % 0 mm
04:21 -12.9 °C -15.6 °C 34852.1 hPa North 25.9 km/h 25.9 km/h 72 % 0 mm
04:22 -12.9 °C -15.6 °C 34852.1 hPa North 29.8 km/h 29.8 km/h 72 % 0 mm
04:26 -12.9 °C -15.7 °C 34841.9 hPa North 32.8 km/h 32.8 km/h 71 % 0 mm
04:28 -12.9 °C -15.7 °C 34841.9 hPa North 26.9 km/h 26.9 km/h 71 % 0 mm
04:29 -12.9 °C -15.7 °C 34852.1 hPa NNE 26.9 km/h 26.9 km/h 71 % 0 mm
04:31 -12.9 °C -15.7 °C 34852.1 hPa North 26.9 km/h 26.9 km/h 71 % 0 mm
04:36 -12.9 °C -15.7 °C 34852.1 hPa North 26.9 km/h 26.9 km/h 71 % 0 mm
04:38 -12.9 °C -15.7 °C 34852.1 hPa North 23.8 km/h 23.8 km/h 71 % 0 mm
04:41 -13 °C -15.7 °C 34841.9 hPa North 28.5 km/h 28.5 km/h 71 % 0 mm
04:46 -13 °C -15.7 °C 34852.1 hPa North 29.8 km/h 29.8 km/h 71 % 0 mm
04:51 -13 °C -15.8 °C 34841.9 hPa North 20.9 km/h 20.9 km/h 71 % 0 mm
04:56 -13.1 °C -15.8 °C 34841.9 hPa North 23.8 km/h 23.8 km/h 71 % 0 mm
05:01 -13.1 °C -15.8 °C 34841.9 hPa North 29.8 km/h 29.8 km/h 71 % 0 mm
05:06 -13.1 °C -15.9 °C 34841.9 hPa North 26.9 km/h 26.9 km/h 70 % 0 mm
05:11 -13.1 °C -15.9 °C 34841.9 hPa North 29.8 km/h 29.8 km/h 70 % 0 mm
05:16 -13.1 °C -16.1 °C 34841.9 hPa NNE 29.8 km/h 29.8 km/h 69 % 0 mm
05:21 -13.1 °C -16.1 °C 34841.9 hPa North 29.8 km/h 29.8 km/h 69 % 0 mm
05:26 -13.1 °C -16.2 °C 34841.9 hPa North 29.8 km/h 29.8 km/h 68 % 0 mm
05:31 -13.2 °C -16.2 °C 34841.9 hPa North 29.8 km/h 29.8 km/h 68 % 0 mm
05:36 -13.2 °C -16.3 °C 34841.9 hPa North 23.8 km/h 23.8 km/h 68 % 0 mm
05:41 -13.2 °C -16.3 °C 34841.9 hPa NNE 26.9 km/h 26.9 km/h 68 % 0 mm
05:46 -13.2 °C -16.3 °C 34841.9 hPa NNW 26.9 km/h 26.9 km/h 68 % 0 mm
05:51 -13.3 °C -16.3 °C 34841.9 hPa NNW 23.8 km/h 23.8 km/h 68 % 0 mm
05:52 -13.3 °C -16.3 °C 34841.9 hPa North 26.9 km/h 26.9 km/h 68 % 0 mm
05:57 -13.3 °C -16.3 °C 34841.9 hPa North 23.8 km/h 23.8 km/h 68 % 0 mm
06:02 -13.3 °C -16.4 °C 34841.9 hPa NNW 29.8 km/h 29.8 km/h 68 % 0 mm
06:03 -13.3 °C -16.4 °C 34841.9 hPa North 29.8 km/h 29.8 km/h 68 % 0 mm
06:08 -13.3 °C -16.4 °C 34841.9 hPa NNE 29.8 km/h 29.8 km/h 68 % 0 mm
06:13 -13.3 °C -16.4 °C 34841.9 hPa NNW 23.8 km/h 23.8 km/h 68 % 0 mm
06:18 -13.3 °C -16.5 °C 34841.9 hPa North 29.8 km/h 29.8 km/h 67 % 0 mm
06:23 -13.3 °C -16.6 °C 34841.9 hPa NNE 29.8 km/h 29.8 km/h 67 % 0 mm
06:28 -13.3 °C -16.6 °C 34852.1 hPa North 26.9 km/h 26.9 km/h 67 % 0 mm
06:33 -13.3 °C -16.5 °C 34852.1 hPa North 29.8 km/h 29.8 km/h 67 % 0 mm
06:38 -13.3 °C -16.6 °C 34852.1 hPa North 29.8 km/h 29.8 km/h 66 % 0 mm
06:43 -13.4 °C -16.7 °C 34852.1 hPa NNE 23.8 km/h 23.8 km/h 66 % 0 mm
06:48 -13.3 °C -16.6 °C 34852.1 hPa North 29.8 km/h 29.8 km/h 66 % 0 mm
06:53 -13.3 °C -16.8 °C 34852.1 hPa NNE 29.8 km/h 29.8 km/h 65 % 0 mm
06:58 -13.3 °C -16.8 °C 34852.1 hPa North 26.9 km/h 26.9 km/h 65 % 0 mm
07:03 -13.3 °C -16.9 °C 34852.1 hPa North 29.8 km/h 29.8 km/h 64 % 0 mm
07:08 -13.3 °C -16.8 °C 34852.1 hPa NNE 29.8 km/h 29.8 km/h 64 % 0 mm
07:13 -13.3 °C -16.8 °C 34852.1 hPa North 29.8 km/h 29.8 km/h 64 % 0 mm
07:18 -13.3 °C -17 °C 34865.6 hPa North 29.8 km/h 29.8 km/h 63 % 0 mm
07:23 -13.3 °C -17 °C 34865.6 hPa North 29.8 km/h 29.8 km/h 63 % 0 mm
07:28 -13.3 °C -17 °C 34865.6 hPa North 26.9 km/h 26.9 km/h 63 % 0 mm
07:33 -13.3 °C -17.1 °C 34865.6 hPa North 32.8 km/h 32.8 km/h 62 % 0 mm
07:38 -13.3 °C -17.1 °C 34865.6 hPa North 32.8 km/h 32.8 km/h 62 % 0 mm
07:43 -13.3 °C -17.2 °C 34865.6 hPa North 29.8 km/h 29.8 km/h 61 % 0 mm
07:48 -13.3 °C -17.1 °C 34865.6 hPa North 29.8 km/h 29.8 km/h 62 % 0 mm
07:53 -13.3 °C -17.1 °C 34875.8 hPa North 29.8 km/h 29.8 km/h 62 % 0 mm
07:58 -13.3 °C -17.1 °C 34875.8 hPa North 29.8 km/h 29.8 km/h 62 % 0 mm
08:03 -13.3 °C -17 °C 34875.8 hPa North 26.9 km/h 26.9 km/h 63 % 0 mm
08:08 -13.4 °C -17.1 °C 34875.8 hPa NNW 29.8 km/h 29.8 km/h 63 % 0 mm
08:13 -13.4 °C -17.1 °C 34875.8 hPa North 26.9 km/h 26.9 km/h 63 % 0 mm
08:18 -13.4 °C -17.1 °C 34889.3 hPa North 29.8 km/h 29.8 km/h 63 % 0 mm
08:23 -13.4 °C -17.1 °C 34889.3 hPa NNE 29.8 km/h 29.8 km/h 63 % 0 mm
08:28 -13.4 °C -17.1 °C 34889.3 hPa North 29.8 km/h 29.8 km/h 63 % 0 mm
08:33 -13.4 °C -17.2 °C 34889.3 hPa North 29.8 km/h 29.8 km/h 62 % 0 mm
08:38 -13.4 °C -17.1 °C 34889.3 hPa North 29.8 km/h 29.8 km/h 63 % 0 mm
08:43 -13.4 °C -17.1 °C 34889.3 hPa North 29.8 km/h 29.8 km/h 63 % 0 mm
08:48 -13.4 °C -17.1 °C 34899.5 hPa North 26.9 km/h 26.9 km/h 63 % 0 mm
08:53 -13.4 °C -17.1 °C 34899.5 hPa North 29.8 km/h 29.8 km/h 63 % 0 mm
08:58 -13.3 °C -17 °C 34899.5 hPa North 26.9 km/h 26.9 km/h 63 % 0 mm
09:03 -13.2 °C -16.9 °C 34899.5 hPa North 29.8 km/h 29.8 km/h 63 % 0 mm
09:08 -13.1 °C -17 °C 34899.5 hPa North 29.8 km/h 29.8 km/h 61 % 0 mm
09:13 -12.9 °C -17 °C 34899.5 hPa NNE 29.8 km/h 29.8 km/h 60 % 0 mm
09:18 -12.8 °C -16.7 °C 34899.5 hPa North 23.8 km/h 23.8 km/h 61 % 0 mm
09:23 -12.6 °C -16.6 °C 34899.5 hPa North 29.8 km/h 29.8 km/h 61 % 0 mm
09:28 -12.6 °C -16.6 °C 34909.7 hPa North 29.8 km/h 29.8 km/h 60 % 0 mm
09:33 -12.4 °C -16.6 °C 34909.7 hPa North 23.8 km/h 23.8 km/h 60 % 0 mm
09:38 -12.4 °C -16.4 °C 34909.7 hPa NNE 17.9 km/h 17.9 km/h 61 % 0 mm
09:43 -12.2 °C -15.8 °C 34909.7 hPa NNE 26.9 km/h 26.9 km/h 64 % 0 mm
09:48 -12 °C -15.6 °C 34909.7 hPa North 20.9 km/h 20.9 km/h 64 % 0 mm
09:53 -11.5 °C -14.6 °C 34909.7 hPa NNE 26.9 km/h 26.9 km/h 69 % 0 mm
09:54 -11.5 °C -14.8 °C 34909.7 hPa NNE 26.9 km/h 26.9 km/h 67 % 0 mm
09:59 -11.3 °C -14.7 °C 34909.7 hPa NE 20.9 km/h 20.9 km/h 66 % 0 mm
10:04 -10.8 °C -13.8 °C 34923.2 hPa NE 33.6 km/h 33.6 km/h 70 % 0 mm
10:09 -10.5 °C -13.6 °C 34923.2 hPa ENE 35.7 km/h 35.7 km/h 69 % 0 mm
10:14 -10.4 °C -13.8 °C 34923.2 hPa ENE 41.7 km/h 41.7 km/h 67 % 0 mm
10:19 -10.4 °C -13.6 °C 34923.2 hPa ENE 38.8 km/h 38.8 km/h 68 % 0 mm
10:24 -10.4 °C -13.7 °C 34923.2 hPa NE 41.7 km/h 41.7 km/h 67 % 0 mm
10:29 -10.4 °C -13.6 °C 34933.4 hPa ENE 38.8 km/h 38.8 km/h 68 % 0 mm
10:34 -10.3 °C -13.5 °C 34933.4 hPa ENE 41.7 km/h 41.7 km/h 68 % 0 mm
10:39 -10.3 °C -13.7 °C 34933.4 hPa ENE 29.8 km/h 29.8 km/h 67 % 0 mm
10:44 -10.3 °C -13.5 °C 34933.4 hPa ENE 38.8 km/h 38.8 km/h 68 % 0 mm
10:49 -10.3 °C -13.5 °C 34933.4 hPa ENE 44.1 km/h 44.1 km/h 68 % 0 mm
10:54 -10.3 °C -13.5 °C 34933.4 hPa East 38.8 km/h 38.8 km/h 68 % 0 mm
10:59 -10.3 °C -13.5 °C 34946.9 hPa ENE 38.8 km/h 38.8 km/h 68 % 0 mm
11:04 -10.2 °C -13.4 °C 34946.9 hPa East 38.8 km/h 38.8 km/h 68 % 0 mm
11:09 -10.2 °C -13.4 °C 34946.9 hPa East 36.2 km/h 36.2 km/h 68 % 0 mm
11:14 -10.2 °C -13.7 °C 34946.9 hPa ENE 38.8 km/h 38.8 km/h 66 % 0 mm
11:19 -10.2 °C -13.5 °C 34946.9 hPa East 33.6 km/h 33.6 km/h 67 % 0 mm
11:24 -10.2 °C -13.6 °C 34946.9 hPa ENE 44.7 km/h 44.7 km/h 66 % 0 mm
11:29 -10.2 °C -13.6 °C 34946.9 hPa East 44.1 km/h 44.1 km/h 66 % 0 mm
11:34 -10.1 °C -13.3 °C 34946.9 hPa ENE 41.7 km/h 41.7 km/h 68 % 0 mm
11:39 -10.1 °C -13.4 °C 34946.9 hPa ENE 44.1 km/h 44.1 km/h 67 % 0 mm
11:44 -10.1 °C -13.3 °C 34946.9 hPa East 35.7 km/h 35.7 km/h 68 % 0 mm
11:49 -10.1 °C -13.2 °C 34946.9 hPa East 36.2 km/h 36.2 km/h 69 % 0 mm
11:54 -10.1 °C -13.4 °C 34946.9 hPa ESE 38.8 km/h 38.8 km/h 67 % 0 mm
11:59 -10.1 °C -13.6 °C 34946.9 hPa ESE 41.7 km/h 41.7 km/h 66 % 0 mm
12:04 -10.1 °C -13.4 °C 34946.9 hPa East 44.7 km/h 44.7 km/h 67 % 0 mm
12:09 -10.1 °C -13.4 °C 34946.9 hPa ESE 32.8 km/h 32.8 km/h 67 % 0 mm
12:14 -10.1 °C -13.3 °C 34946.9 hPa East 36.2 km/h 36.2 km/h 68 % 0 mm
12:19 -10.1 °C -13.3 °C 34946.9 hPa ESE 44.7 km/h 44.7 km/h 68 % 0 mm
12:24 -10.1 °C -13.3 °C 34946.9 hPa ESE 41.7 km/h 41.7 km/h 68 % 0 mm
12:29 -10.1 °C -13.4 °C 34946.9 hPa ESE 47.6 km/h 47.6 km/h 67 % 0 mm
12:34 -10.1 °C -13.4 °C 34946.9 hPa ESE 41.7 km/h 41.7 km/h 67 % 0 mm
12:35 -10.1 °C -13.4 °C 34946.9 hPa ESE 38.8 km/h 44.1 km/h 67 % 0 mm
12:40 -10.1 °C -13.6 °C 34946.9 hPa East 47.6 km/h 47.6 km/h 66 % 0 mm
12:45 -10.1 °C -13.4 °C 34946.9 hPa ESE 36.2 km/h 44.1 km/h 67 % 0 mm
12:50 -10.1 °C -13.6 °C 34946.9 hPa ESE 38.8 km/h 44.1 km/h 66 % 0 mm
12:55 -10.1 °C -13.2 °C 34933.4 hPa ESE 44.7 km/h 44.7 km/h 69 % 0 mm
13:00 -10.1 °C -13.7 °C 34933.4 hPa ESE 41.4 km/h 51.8 km/h 65 % 0 mm
13:05 -10.1 °C -13.4 °C 34933.4 hPa ESE 38.8 km/h 44.1 km/h 67 % 0 mm
13:10 -10 °C -13.2 °C 34933.4 hPa East 44.7 km/h 44.7 km/h 68 % 0 mm
13:15 -10.1 °C -13.4 °C 34933.4 hPa ESE 38.8 km/h 54.4 km/h 67 % 0 mm
13:20 -10.1 °C -13.4 °C 34933.4 hPa East 38.8 km/h 38.8 km/h 67 % 0 mm
13:25 -10.1 °C -13.3 °C 34933.4 hPa ESE 38.8 km/h 44.1 km/h 68 % 0 mm
13:30 -10.1 °C -13.2 °C 34923.2 hPa ESE 41.7 km/h 41.7 km/h 69 % 0 mm
13:35 -10 °C -13.1 °C 34923.2 hPa ESE 47.6 km/h 47.6 km/h 69 % 0 mm
13:40 -10.1 °C -13.4 °C 34923.2 hPa ESE 38.8 km/h 46.7 km/h 67 % 0 mm
13:45 -10 °C -13 °C 34923.2 hPa East 47.6 km/h 47.6 km/h 70 % 0 mm
13:50 -10.1 °C -13.4 °C 34923.2 hPa East 41.4 km/h 41.4 km/h 67 % 0 mm
13:55 -10 °C -13.2 °C 34923.2 hPa ESE 41.4 km/h 51.8 km/h 68 % 0 mm
14:00 -10.1 °C -13.3 °C 34923.2 hPa ESE 50.7 km/h 50.7 km/h 68 % 0 mm
14:10 -10.1 °C -13.4 °C 34923.2 hPa ESE 46.7 km/h 57 km/h 67 % 0 mm
14:15 -10.1 °C -13.4 °C 34923.2 hPa East 38.8 km/h 51.8 km/h 67 % 0 mm
14:20 -10.1 °C -13.3 °C 34923.2 hPa ESE 50.7 km/h 50.7 km/h 68 % 0 mm
14:25 -10.1 °C -13 °C 34909.7 hPa East 41.4 km/h 51.8 km/h 70 % 0 mm
14:30 -10.1 °C -13.2 °C 34909.7 hPa East 62.6 km/h 62.6 km/h 69 % 0 mm
14:35 -10 °C -13 °C 34909.7 hPa East 59.5 km/h 59.5 km/h 70 % 0 mm
14:40 -10.1 °C -13 °C 34909.7 hPa East 50.7 km/h 50.7 km/h 70 % 0 mm
14:45 -10 °C -13.1 °C 34909.7 hPa East 47.6 km/h 47.6 km/h 69 % 0 mm
14:50 -10.1 °C -13.4 °C 34909.7 hPa East 33.6 km/h 41.4 km/h 67 % 0 mm
14:55 -9.9 °C -13.2 °C 34909.7 hPa East 36.2 km/h 46.7 km/h 68 % 0 mm
15:00 -9.9 °C -13.1 °C 34909.7 hPa East 47.6 km/h 47.6 km/h 69 % 0 mm
15:05 -9.9 °C -13.2 °C 34909.7 hPa East 44.1 km/h 54.4 km/h 68 % 0 mm
15:10 -9.9 °C -13.6 °C 34909.7 hPa ENE 50.7 km/h 50.7 km/h 65 % 0 mm
15:15 -9.9 °C -13.6 °C 34909.7 hPa ENE 47.6 km/h 47.6 km/h 65 % 0 mm
15:20 -9.9 °C -13.3 °C 34909.7 hPa ENE 44.7 km/h 44.7 km/h 67 % 0 mm
15:25 -9.9 °C -13.4 °C 34909.7 hPa ENE 47.6 km/h 47.6 km/h 66 % 0 mm
15:30 -9.9 °C -13.4 °C 34909.7 hPa ENE 36.2 km/h 51.8 km/h 66 % 0 mm
15:31 -9.9 °C -13.4 °C 34909.7 hPa East 38.8 km/h 38.8 km/h 66 % 0 mm
15:36 -9.9 °C -13.2 °C 34909.7 hPa East 47.6 km/h 47.6 km/h 67 % 0 mm
15:41 -9.9 °C -13.4 °C 34909.7 hPa East 50.7 km/h 50.7 km/h 66 % 0 mm
15:46 -9.9 °C -13 °C 34909.7 hPa East 38.8 km/h 38.8 km/h 69 % 0 mm
15:51 -9.8 °C -13.6 °C 34909.7 hPa East 54.4 km/h 54.4 km/h 64 % 0 mm
15:56 -9.8 °C -13.6 °C 34909.7 hPa East 50.7 km/h 50.7 km/h 64 % 0 mm
15:57 -9.8 °C -13.6 °C 34909.7 hPa East 50.7 km/h 50.7 km/h 64 % 0 mm
16:02 -9.8 °C -13.6 °C 34909.7 hPa East 47.6 km/h 47.6 km/h 64 % 0 mm
16:07 -9.8 °C -13.3 °C 34909.7 hPa East 47.6 km/h 47.6 km/h 66 % 0 mm
16:12 -9.9 °C -13.7 °C 34909.7 hPa ESE 50.7 km/h 50.7 km/h 64 % 0 mm
16:17 -9.9 °C -13.8 °C 34909.7 hPa East 49.2 km/h 49.2 km/h 63 % 0 mm
16:22 -9.8 °C -13.8 °C 34909.7 hPa East 47.6 km/h 47.6 km/h 62 % 0 mm
16:27 -9.8 °C -13.7 °C 34909.7 hPa East 54.4 km/h 54.4 km/h 63 % 0 mm
16:32 -9.9 °C -13.5 °C 34909.7 hPa East 53.6 km/h 53.6 km/h 65 % 0 mm
16:37 -9.9 °C -13.4 °C 34909.7 hPa East 50.7 km/h 50.7 km/h 66 % 0 mm
16:42 -9.9 °C -13.7 °C 34909.7 hPa East 53.6 km/h 53.6 km/h 64 % 0 mm
16:47 -9.9 °C -13.4 °C 34909.7 hPa ENE 56.6 km/h 56.6 km/h 66 % 0 mm
16:52 -10 °C -13.4 °C 34909.7 hPa East 53.6 km/h 53.6 km/h 67 % 0 mm
16:57 -10 °C -13.2 °C 34909.7 hPa East 47.6 km/h 47.6 km/h 68 % 0 mm
17:02 -9.9 °C -13.2 °C 34909.7 hPa East 41.7 km/h 41.7 km/h 68 % 0 mm
17:07 -9.9 °C -13.2 °C 34909.7 hPa ENE 50.7 km/h 50.7 km/h 68 % 0 mm
17:12 -9.9 °C -13.4 °C 34909.7 hPa East 53.6 km/h 53.6 km/h 66 % 0 mm
17:17 -10 °C -13.6 °C 34923.2 hPa East 47.6 km/h 47.6 km/h 65 % 0 mm
17:22 -10 °C -13.5 °C 34923.2 hPa East 44.7 km/h 44.7 km/h 66 % 0 mm
17:27 -10 °C -13.2 °C 34923.2 hPa ENE 44.7 km/h 44.7 km/h 68 % 0 mm
17:32 -10 °C -13.5 °C 34923.2 hPa East 41.7 km/h 41.7 km/h 66 % 0 mm
17:37 -9.9 °C -13.3 °C 34923.2 hPa East 44.7 km/h 44.7 km/h 67 % 0 mm
17:42 -9.9 °C -13.2 °C 34923.2 hPa ENE 44.7 km/h 44.7 km/h 68 % 0 mm
17:47 -9.9 °C -13.1 °C 34923.2 hPa East 50.7 km/h 50.7 km/h 69 % 0 mm
17:52 -10 °C -13.2 °C 34923.2 hPa East 50.7 km/h 50.7 km/h 68 % 0 mm
17:57 -10.1 °C -13.3 °C 34933.4 hPa ENE 38.8 km/h 38.8 km/h 68 % 0 mm
18:02 -10.1 °C -13.2 °C 34933.4 hPa East 50.7 km/h 50.7 km/h 69 % 0 mm
18:03 -10.1 °C -13.3 °C 34933.4 hPa ENE 50.7 km/h 50.7 km/h 68 % 0 mm
18:08 -10.1 °C -13.1 °C 34933.4 hPa East 38.8 km/h 38.8 km/h 70 % 0 mm
18:13 -10.1 °C -13.2 °C 34933.4 hPa ENE 38.8 km/h 38.8 km/h 69 % 0 mm
18:18 -10.2 °C -13.4 °C 34933.4 hPa ENE 35.7 km/h 35.7 km/h 68 % 0 mm
18:23 -10.2 °C -13.3 °C 34933.4 hPa ENE 31.1 km/h 31.1 km/h 69 % 0 mm
18:28 -10.2 °C -13.3 °C 34933.4 hPa ENE 35.7 km/h 35.7 km/h 69 % 0 mm
18:33 -10.2 °C -13.3 °C 34933.4 hPa ENE 35.7 km/h 35.7 km/h 69 % 0 mm
18:38 -10.3 °C -13.4 °C 34946.9 hPa ENE 29.8 km/h 29.8 km/h 69 % 0 mm
18:43 -10.3 °C -13.5 °C 34946.9 hPa ENE 29.8 km/h 29.8 km/h 68 % 0 mm
18:48 -10.3 °C -13.4 °C 34946.9 hPa ENE 29.8 km/h 29.8 km/h 69 % 0 mm
18:53 -10.3 °C -13.4 °C 34946.9 hPa ENE 29.8 km/h 29.8 km/h 69 % 0 mm
18:58 -10.3 °C -13.4 °C 34946.9 hPa ENE 29.8 km/h 29.8 km/h 69 % 0 mm
19:03 -10.3 °C -13.6 °C 34946.9 hPa NE 29.8 km/h 29.8 km/h 68 % 0 mm
19:08 -10.4 °C -13.6 °C 34946.9 hPa NE 32.8 km/h 32.8 km/h 68 % 0 mm
19:13 -10.4 °C -13.6 °C 34946.9 hPa NE 26.9 km/h 26.9 km/h 68 % 0 mm
19:23 -10.4 °C -13.6 °C 34957.1 hPa NE 26.9 km/h 26.9 km/h 68 % 0 mm
19:28 -10.4 °C -13.8 °C 34957.1 hPa NE 28.5 km/h 28.5 km/h 67 % 0 mm
19:33 -10.4 °C -13.6 °C 34957.1 hPa NNE 26.9 km/h 26.9 km/h 68 % 0 mm
19:38 -10.4 °C -13.7 °C 34957.1 hPa NE 26.9 km/h 26.9 km/h 68 % 0 mm
19:43 -10.4 °C -13.7 °C 34957.1 hPa NNE 23.8 km/h 23.8 km/h 68 % 0 mm
19:48 -10.4 °C -13.7 °C 34957.1 hPa NE 23.8 km/h 23.8 km/h 68 % 0 mm
19:53 -10.4 °C -13.5 °C 34957.1 hPa NE 20.9 km/h 20.9 km/h 69 % 0 mm
19:58 -10.4 °C -13.6 °C 34967.2 hPa NE 20.9 km/h 20.9 km/h 69 % 0 mm
20:03 -10.4 °C -13.6 °C 34957.1 hPa NE 26.9 km/h 26.9 km/h 69 % 0 mm
20:08 -10.4 °C -13.4 °C 34967.2 hPa NE 26.9 km/h 26.9 km/h 70 % 0 mm
20:13 -10.4 °C -13.4 °C 34967.2 hPa ENE 29.8 km/h 29.8 km/h 69 % 0 mm
20:23 -10.3 °C -13.3 °C 34967.2 hPa NE 26.9 km/h 26.9 km/h 70 % 0 mm
20:28 -10.3 °C -13.3 °C 34967.2 hPa ENE 26.9 km/h 26.9 km/h 70 % 0 mm
20:33 -10.3 °C -13.3 °C 34967.2 hPa NE 23.8 km/h 23.8 km/h 70 % 0 mm
20:38 -10.4 °C -13.2 °C 34967.2 hPa NE 29.8 km/h 29.8 km/h 71 % 0 mm
20:43 -10.3 °C -13.2 °C 34967.2 hPa ENE 26.9 km/h 26.9 km/h 71 % 0 mm
20:48 -10.3 °C -13.2 °C 34967.2 hPa NE 23.8 km/h 23.8 km/h 71 % 0 mm
20:53 -10.3 °C -13.2 °C 34967.2 hPa NE 26.9 km/h 26.9 km/h 71 % 0 mm
20:58 -10.4 °C -13.3 °C 34967.2 hPa NE 20.9 km/h 20.9 km/h 70 % 0 mm
21:03 -10.4 °C -13.2 °C 34967.2 hPa NE 20.9 km/h 20.9 km/h 71 % 0 mm
21:08 -10.4 °C -13.3 °C 34980.8 hPa NE 17.9 km/h 17.9 km/h 71 % 0 mm
21:13 -10.5 °C -13.4 °C 34980.8 hPa NNE 15 km/h 15 km/h 71 % 0 mm
21:18 -10.7 °C -13.6 °C 34980.8 hPa NE 23.8 km/h 23.8 km/h 71 % 0 mm
21:23 -10.9 °C -13.6 °C 34980.8 hPa NE 9 km/h 9 km/h 72 % 0 mm
21:33 -10.6 °C -13.2 °C 34980.8 hPa NE 26.9 km/h 26.9 km/h 73 % 0 mm
21:38 -10.5 °C -13.2 °C 34980.8 hPa NE 20.9 km/h 20.9 km/h 72 % 0 mm
21:43 -10.5 °C -13.2 °C 34980.8 hPa NE 15 km/h 15 km/h 72 % 0 mm
21:48 -10.7 °C -13.4 °C 34980.8 hPa NNE 17.9 km/h 17.9 km/h 72 % 0 mm
21:53 -10.8 °C -13.7 °C 34980.8 hPa NNE 9 km/h 9 km/h 71 % 0 mm
21:58 -10.8 °C -13.3 °C 34980.8 hPa ENE 23.8 km/h 23.8 km/h 74 % 0 mm
22:03 -10.4 °C -13.1 °C 34980.8 hPa ENE 23.3 km/h 23.3 km/h 73 % 0 mm
22:08 -10.3 °C -13.1 °C 34980.8 hPa NE 29.8 km/h 29.8 km/h 72 % 0 mm
22:13 -10.2 °C -13.1 °C 34980.8 hPa NNE 29.8 km/h 29.8 km/h 71 % 0 mm
22:18 -10.2 °C -12.9 °C 34980.8 hPa ENE 26.9 km/h 26.9 km/h 72 % 0 mm
22:23 -10.2 °C -13.1 °C 34980.8 hPa NE 29.8 km/h 29.8 km/h 71 % 0 mm
22:28 -10.2 °C -12.9 °C 34990.9 hPa ENE 26.9 km/h 26.9 km/h 72 % 0 mm
22:33 -10.2 °C -12.9 °C 34990.9 hPa ENE 23.8 km/h 23.8 km/h 72 % 0 mm
22:38 -10.2 °C -12.9 °C 34990.9 hPa ENE 23.8 km/h 23.8 km/h 72 % 0 mm
22:43 -10.2 °C -12.9 °C 34990.9 hPa NE 29.8 km/h 29.8 km/h 72 % 0 mm
22:48 -10.2 °C -13 °C 34990.9 hPa ENE 23.8 km/h 23.8 km/h 72 % 0 mm
22:53 -10.2 °C -12.9 °C 34990.9 hPa ENE 29.8 km/h 29.8 km/h 72 % 0 mm
22:58 -10.2 °C -12.9 °C 34990.9 hPa ENE 26.9 km/h 26.9 km/h 72 % 0 mm
23:03 -10.2 °C -12.9 °C 34990.9 hPa ENE 23.8 km/h 23.8 km/h 72 % 0 mm
23:08 -10.2 °C -13 °C 34990.9 hPa ENE 26.9 km/h 26.9 km/h 72 % 0 mm
23:13 -10.2 °C -13 °C 34990.9 hPa NE 20.9 km/h 20.9 km/h 72 % 0 mm
23:18 -10.3 °C -12.9 °C 34990.9 hPa NE 23.8 km/h 23.8 km/h 73 % 0 mm
23:23 -10.2 °C -13 °C 34990.9 hPa ENE 28.5 km/h 28.5 km/h 72 % 0 mm
23:28 -10.2 °C -12.9 °C 34990.9 hPa ENE 29.8 km/h 29.8 km/h 72 % 0 mm
23:33 -10.2 °C -12.9 °C 34990.9 hPa NE 29.8 km/h 29.8 km/h 72 % 0 mm
23:38 -10.2 °C -13.1 °C 34990.9 hPa ENE 29.8 km/h 29.8 km/h 71 % 0 mm
23:43 -10.2 °C -13.1 °C 34990.9 hPa NE 29.8 km/h 29.8 km/h 71 % 0 mm
23:48 -10.2 °C -13.1 °C 34990.9 hPa ENE 26.9 km/h 26.9 km/h 71 % 0 mm
23:54 -10.2 °C -13.1 °C 34990.9 hPa NE 26.9 km/h 26.9 km/h 71 % 0 mm
23:59 -10.3 °C -13.2 °C 34990.9 hPa NE 23.8 km/h 23.8 km/h 71 % 0 mm
Puerto Banus, Marbella
Elogios de Weather Underground - 2.5 mb

Guión original por  Jim McMurry - jmcmurry@mwt.net Adaptado para la plantilla por  Wim van der Kuil - Leuven-Template.eu

Usted encontrará nuestra información del tiempo también en:

Weather Underground

Iberian Peninsula Weather Network